Regional Weather Roundup
Issued by NWS Binghamton, NY

Home | Current Version | Previous Version | Text Only | Print | Product List | Glossary On
Versions: 1 2 3 4 5 6 7 8 9 10 11 12 13 14 15 16 17 18 19 20 21 22 23 24 25 26 27 28 29 30 31 32 33 34 35 36 37 38 39 40 41 42 43 44 45 46 47 48 49 50
000
ASUS41 KBGM 282010
RWRBGM

REGIONAL WEATHER ROUNDUP
NATIONAL WEATHER SERVICE BINGHAMTON NY
400 PM EDT SUN AUG 28 2016

Note: "fair" indicates few or no clouds below 12,000 feet with no
significant weather and/or obstructions to visibility.

* = Station(s) that does not report precipitation, such as rain,
snow, etc, also no thunder or fog.

NYZ009-015>018-022>025-036-037-044>046-055>057-062-282100
...Central New York...

CITY           SKY/WX    TMP DP  RH WIND       PRES   REMARKS
Binghamton     MOSUNNY   83  67  58 SW9       30.19F HX  85
Cortland       PTSUNNY   84  70  61 SW6       30.16S HX  88
Dansville      SUNNY     91  64  40 VRB7      30.12F HX  92
Elmira         MOSUNNY   85  69  58 SW12      30.13S HX  89
Ithaca         PTSUNNY   87  70  56 S8        30.15F HX  92
Hamilton       PTSUNNY   88  70  55 SW3       30.15F HX  92
Hornell        MOSUNNY   86  66  51 W6        30.19S HX  88
Monticello     SUNNY     82  63  51 SW8G16    30.23F
Norwich        SUNNY     84  66  54 S9        30.16F HX  86
Oneonta        SUNNY     82  61  47 SW9       30.21F
Penn Yan       PTSUNNY   89  67  47 W6        30.13F HX  92
Rome           MOSUNNY   87  71  58 VRB5      30.12F HX  93
Sidney         SUNNY     84  68  58 S6        30.17F HX  87
Syracuse       LGT RAIN  86  69  56 SW8       30.09F HX  90
$$

PAZ038>040-043-044-047-048-072-282100
...Northeast Pennsylvania...

CITY           SKY/WX    TMP DP  RH WIND       PRES   REMARKS
Hazleton       SUNNY     82  63  51 S6        30.26F
Scranton       SUNNY     86  63  45 S8G18     30.19F HX  87
$$
&&
KEY
WCI = Wind Chill Index
VSB = Visibility
HX  = Heat Index
$$



USA.gov is the U.S. government's official web portal to all federal, state and local government web resources and services.